CZ-4C DEB, 42672

Orbit data source: Space-Track

CZ-4C DEB, 42672 is space debris in SSO originally from a launch on Thu, 26 Nov 2015 UTC launched from the Taiyaun Space Center, China (TSC). Debris objects in space refer to the collection of defunct objects orbiting the Earth. Examples of debris include non-operational satellites, rocket bodies, and fragments generated from explosions, collisions, or faulty payload assembly.

Loading next visibility...
Identifier
42672, 2015-069E
Orbit
SSO
Country
Flag of CNCN / PRC
Related business
Manufacturer
Unknown
Mission
Spacecraft
Bus & Motor
Unknown
Mass
Unknown
Launch date (UTC)
2015-11-26 (11 years ago)
Launch vehicle
Unknown
Launch site
Taiyaun Space Center, China (TSC)
Object type
Payload
Rocket body
Debris
Shape & HBR
Unknown shape, 0.1 m
Radar Cross Section
Small (<0.1 m²)

Expand to show TLE details & history
Last TLE update: 3 days ago

TLE from 3 days ago
0 CZ-4C DEB
1 42672U 15069E   26170.92078946  .00013571  00000-0  91477-3 0  9991
2 42672  98.2771 161.8383 0072304 298.4236  60.9715 15.04650186559527
Epoch: 2026-06-19T22:05Z
TLE epoch observation values (Epoch: 2026-06-19T22:05:56.209Z)
Latitude
0.00004°
Longitude
-77.78875°
Altitude
531.58 km
Speed
7.61 km/s
True Right ascension
10h 47m 21s
True Declination
0° 00' 00"
Sunlit
Object was in daylight at epoch
Visualization orbit readout
Latitude
Unknown
Longitude
Unknown
Altitude
Unknown
Speed
Unknown
Apparent Right ascension
Unknown
Apparent Declination
Unknown
Sunlit
N/A
Visualization observer readout
Local Sidereal Time
21:39:54
Azimuth
Unknown
Elevation
Unknown
Doppler factor
Unknown
Orbital elements
Apogee altitude
599.695 km
Perigee altitude
499.515 km
Semi-major axis
6,927.742 km
Eccentricity
0.00723
Inclination
98.2771°
RAAN
161.8383°
Arg. of periapsis
298.4236°
True anomaly
61.69913°
Mean anomaly
60.9715°
Eccentric anomaly
61.335°
Mean motion
3.76405 °/min
Orbital period
95.64 mins
BSTAR
0.00091477
Loading maneuver chart data...
Computing Atmospheric mass density...
Loading historical data...
Loading historical data...
Loading historical data...
Loading historical data...
Loading historical data...
Loading historical data...
Loading historical data...
Other satellites on launch #69 in the year 2015 (2015-11-26 UTC)

Documentation

Showing up to 5 results
|